BOE891 KVCV-KBFI

Flight info

Callsign BOE891
Flight time N/A
Altitude 40000
Route ETHER PMD LANDO J5 LKV HRMNS VIPRE OLM OLM2
Aircraft B38M/M-SDE1FGHILORVWXY/HB1

Departure

Time 2026-04-12 20:00
Airport Southern California Logistics Airport (KVCV)

Arrival

Time N/A
Airport King County International Airport - Boeing Field (KBFI)
Time Latitude Longitude Altitude Speed Heading
2026-04-12 19:21 34.58915 -117.37591 2874 ft 0 kts 51°
2026-04-12 19:48 34.58931 -117.37572 2874 ft 8 kts 32°
2026-04-12 19:49 34.58956 -117.37576 2875 ft 0 kts 319°
2026-04-12 19:53 34.58964 -117.37585 2875 ft 5 kts 314°
2026-04-12 19:53 34.58973 -117.37663 2875 ft 14 kts 232°
2026-04-12 19:53 34.58984 -117.37782 2874 ft 18 kts 314°
2026-04-12 19:54 34.59083 -117.37905 2874 ft 22 kts 314°
2026-04-12 19:54 34.59198 -117.38049 2870 ft 26 kts 315°
2026-04-12 19:54 34.59341 -117.38226 2861 ft 32 kts 314°
2026-04-12 19:54 34.59515 -117.38417 2850 ft 30 kts 355°
2026-04-12 19:55 34.59737 -117.38408 2849 ft 34 kts 359°
2026-04-12 19:55 34.59981 -117.38411 2845 ft 36 kts
2026-04-12 19:55 34.60227 -117.38412 2843 ft 35 kts
2026-04-12 19:55 34.60465 -117.38414 2842 ft 25 kts
2026-04-12 19:56 34.60650 -117.38416 2840 ft 28 kts 360°
2026-04-12 19:56 34.60857 -117.38417 2839 ft 32 kts 359°
2026-04-12 19:56 34.61089 -117.38420 2837 ft 35 kts 360°
2026-04-12 19:56 34.61340 -117.38422 2834 ft 38 kts
2026-04-12 19:57 34.61559 -117.38427 2832 ft 24 kts 342°
2026-04-12 19:57 34.61603 -117.38537 2832 ft 6 kts 268°
2026-04-12 19:57 34.61603 -117.38539 2830 ft 0 kts 268°
2026-04-12 19:58 34.61602 -117.38567 2831 ft 6 kts 268°
2026-04-12 19:59 34.61599 -117.38653 2829 ft 12 kts 251°
2026-04-12 19:59 34.61511 -117.38673 2831 ft 20 kts 180°
2026-04-12 19:59 34.61178 -117.38670 2836 ft 80 kts 179°
2026-04-12 19:59 34.60425 -117.38665 2840 ft 134 kts 180°
2026-04-12 20:00 34.59373 -117.38660 2997 ft 160 kts 181°
2026-04-12 20:00 34.58245 -117.38622 3607 ft 161 kts 184°
2026-04-12 20:00 34.57225 -117.38938 4388 ft 146 kts 219°
2026-04-12 20:00 34.56744 -117.39993 5063 ft 157 kts 255°
2026-04-12 20:01 34.56624 -117.41419 5650 ft 183 kts 262°
2026-04-12 20:01 34.56497 -117.43052 6299 ft 206 kts 261°
2026-04-12 20:01 34.56336 -117.44891 6994 ft 227 kts 261°
2026-04-12 20:01 34.56168 -117.46852 7690 ft 246 kts 261°
2026-04-12 20:02 34.56000 -117.48990 8454 ft 260 kts 261°
2026-04-12 20:02 34.55963 -117.51189 9581 ft 266 kts 274°
2026-04-12 20:02 34.56654 -117.53339 10523 ft 285 kts 292°
2026-04-12 20:02 34.57632 -117.55513 11113 ft 300 kts 289°
2026-04-12 20:03 34.58570 -117.57840 11868 ft 312 kts 290°
2026-04-12 20:03 34.59547 -117.60197 12962 ft 313 kts 291°
2026-04-12 20:03 34.60541 -117.62563 14048 ft 316 kts 292°
2026-04-12 20:03 34.61551 -117.64947 15075 ft 319 kts 291°
2026-04-12 20:04 34.62572 -117.67347 16119 ft 321 kts 291°
2026-04-12 20:04 34.63604 -117.69768 17167 ft 324 kts 290°
2026-04-12 20:04 34.64644 -117.72206 18147 ft 328 kts 290°
2026-04-12 20:04 34.65659 -117.74695 18993 ft 326 kts 284°
2026-04-12 20:05 34.66045 -117.77350 19800 ft 317 kts 265°
2026-04-12 20:05 34.65869 -117.80025 20553 ft 321 kts 261°
2026-04-12 20:05 34.65643 -117.82731 21381 ft 323 kts 260°
2026-04-12 20:05 34.65386 -117.85445 22202 ft 325 kts 260°
2026-04-12 20:06 34.65111 -117.88183 23019 ft 328 kts 259°
2026-04-12 20:06 34.64822 -117.90947 23782 ft 331 kts 259°
2026-04-12 20:06 34.64524 -117.93728 24452 ft 334 kts 259°
2026-04-12 20:06 34.64220 -117.96536 25117 ft 337 kts 259°
2026-04-12 20:07 34.63911 -117.99364 25778 ft 340 kts 259°
2026-04-12 20:07 34.63600 -118.02222 26420 ft 343 kts 260°
2026-04-12 20:07 34.63669 -118.05112 27066 ft 354 kts 275°
2026-04-12 20:07 34.64573 -118.07994 27830 ft 370 kts 291°
2026-04-12 20:08 34.66117 -118.10514 28561 ft 381 kts 299°
2026-04-12 20:08 34.67798 -118.13009 29127 ft 385 kts 299°
2026-04-12 20:08 34.69515 -118.15533 29691 ft 389 kts 299°
2026-04-12 20:08 34.71252 -118.18062 30242 ft 392 kts 299°
2026-04-12 20:09 34.73012 -118.20612 30703 ft 395 kts 299°
2026-04-12 20:09 34.74787 -118.23182 31243 ft 398 kts 299°
2026-04-12 20:09 34.76572 -118.25764 31719 ft 400 kts 299°
2026-04-12 20:09 34.78366 -118.28360 32205 ft 402 kts 298°
2026-04-12 20:10 34.80169 -118.30971 32687 ft 404 kts 298°
2026-04-12 20:10 34.81984 -118.33602 33150 ft 407 kts 298°
2026-04-12 20:10 34.83809 -118.36249 33617 ft 409 kts 298°
2026-04-12 20:10 34.85634 -118.38897 34162 ft 408 kts 298°
2026-04-12 20:11 34.87453 -118.41539 34744 ft 405 kts 298°
2026-04-12 20:11 34.89259 -118.44165 35292 ft 403 kts 298°
2026-04-12 20:11 34.91058 -118.46782 35822 ft 402 kts 298°
2026-04-12 20:11 34.92853 -118.49395 36333 ft 402 kts 298°
2026-04-12 20:12 34.94642 -118.52002 36839 ft 401 kts 298°
2026-04-12 20:12 34.96428 -118.54606 37337 ft 400 kts 297°
2026-04-12 20:12 34.98205 -118.57199 37814 ft 399 kts 297°
2026-04-12 20:12 34.99981 -118.59792 38267 ft 398 kts 297°
2026-04-12 20:13 35.01889 -118.62283 38702 ft 411 kts 307°
2026-04-12 20:13 35.04087 -118.64477 39037 ft 413 kts 307°
2026-04-12 20:13 35.08543 -118.69021 39689 ft 417 kts 308°
2026-04-12 20:14 35.10748 -118.71257 39944 ft 419 kts 308°
2026-04-12 20:14 35.15243 -118.75819 40031 ft 419 kts 309°
2026-04-12 20:15 35.19719 -118.80368 40012 ft 418 kts 309°
2026-04-12 20:15 35.24195 -118.84922 40041 ft 418 kts 309°
2026-04-12 20:16 35.28672 -118.89485 40051 ft 420 kts 309°
2026-04-12 20:16 35.33161 -118.94067 40043 ft 420 kts 309°
2026-04-12 20:17 35.37649 -118.98654 40052 ft 419 kts 309°
2026-04-12 20:17 35.42124 -119.03236 40075 ft 419 kts 309°
2026-04-12 20:18 35.46668 -119.07765 40024 ft 429 kts 317°
2026-04-12 20:18 35.49424 -119.09376 40027 ft 451 kts 332°
2026-04-12 20:18 35.52571 -119.10149 40060 ft 469 kts 342°
2026-04-12 20:19 35.59065 -119.11097 40046 ft 471 kts 343°
2026-04-12 20:19 35.65553 -119.11970 40070 ft 472 kts 344°
2026-04-12 20:20 35.72083 -119.12830 40055 ft 472 kts 344°
2026-04-12 20:20 35.78614 -119.13690 40054 ft 472 kts 344°